[[{"header":{"parameterUnit":"m.s-1","parameterCategory":2,"la1":30.2991,"la2":30.254,"lo1":-89.0895,"lo2":-89.0444,"dy":0.0017,"dx":0.0017,"nx":28,"ny":28,"refTime":"2024-03-20T03:00:00:Z","depth":"0","parameterNumber":2,"parameterNumberName":"U-component_of_CURRENTS"},"data":[0,0,0,0,0,0,0,0,0,0,0,0,0,0,0,0,0,0,0,0,0,0,0,0,0,0,0,0,0,0,0,0,0,0,0,0,0,0,0,0,0,0,0,0,0,0,0,0,0,0,0,0,0,0,0,0,0,0,0.3468,0.3468,0,0.3453,0.3452,0.3452,0.3414,0.3413,0.3413,0.3412,0.3382,0.3381,0.3381,0,0,0,0,0,0,0,0,0,0,0,0,0,0.3516,0.3515,0.3468,0.3468,0.3468,0.3453,0.3452,0.3452,0.3414,0.3413,0.3413,0.3412,0.3382,0.3381,0.3381,0,0,0,0,0,0,0,0,0,0,0,0,0,0.3495,0.3514,0.3468,0.3449,0.3448,0.3453,0.3452,0.3452,0.3414,0.3413,0.3412,0.3412,0.3382,0.3381,0.3381,0.3396,0,0,0.338,0.338,0,0,0,0,0,0,0,0,0.3496,0.3493,0.3452,0.3451,0.3449,0.3437,0.3458,0.3433,0.3414,0.3424,0.3412,0.3411,0.3401,0.3399,0.3394,0.3394,0.3393,0.338,0.3379,0.3379,0.3379,0,0,0,0,0,0,0,0.3497,0.3494,0.3459,0.3452,0.345,0.346,0.3455,0.3453,0.3415,0.3423,0.3421,0.3424,0.3399,0.3395,0.3393,0.3392,0.338,0.3379,0.3379,0.3379,0.344,0.3441,0,0,0,0,0,0,0.3503,0.3495,0.346,0.3459,0.3474,0.3459,0.3454,0.3439,0.3416,0.3412,0.3424,0.3422,0.3396,0.3394,0.3392,0.3437,0.3379,0.3379,0.3379,0.3438,0.344,0.3442,0,0,0,0,0,0,0.3503,0.3499,0.3461,0.348,0.3476,0.3459,0.3443,0.344,0.3441,0.3417,0.3412,0.343,0.3395,0.3393,0.3404,0.3434,0.3379,0.3378,0.3436,0.3438,0.3441,0.3507,0,0,0,0,0,0,0.3504,0.3499,0.3494,0.348,0.3475,0.3475,0.3444,0.344,0.3445,0.3441,0.3421,0.3417,0.3394,0.3405,0.3404,0.3432,0.3378,0.3433,0.3437,0.344,0.3503,0.3512,0.352,0,0,0,0,0,0.3506,0.3499,0.3493,0.349,0.3467,0.3476,0.3475,0.3459,0.3446,0.3455,0.3443,0.3418,0.3426,0.3406,0.3404,0.3433,0.3431,0.3436,0.344,0.3499,0.351,0.352,0,0,0,0,0,0,0.3508,0.3495,0.3488,0.3474,0.3483,0.3471,0.3477,0.347,0.3467,0.3463,0.3436,0.3432,0.3459,0.344,0.3418,0.3464,0.3427,0.3431,0.3473,0.3483,0.3492,0.3491,0.3378,0,0,0,0,0,0.3511,0.3504,0.3501,0.3493,0.3499,0.3493,0.3496,0.349,0.3485,0.3482,0.3469,0.3464,0.3475,0.3473,0.3477,0.3496,0.3494,0.3517,0.3525,0.3532,0.3532,0.3579,0.3592,0.3456,0.3456,0.3456,0,0,0.3506,0.3502,0.3494,0.3495,0.3497,0.3508,0.3492,0.3503,0.3512,0.3481,0.3489,0.3496,0.349,0.3515,0.3524,0.35,0.357,0.3538,0.3544,0.354,0.3585,0.3598,0.361,0.3459,0.3458,0.3458,0,0,0.3503,0.3497,0.3496,0.3509,0.3524,0.3527,0.3537,0.3538,0.354,0.3558,0.3546,0.357,0.357,0.3577,0.358,0.364,0.3621,0.3646,0.3678,0.3725,0.3736,0.3746,0.3755,0.3766,0.3642,0.3642,0.3642,0,0.3499,0.3496,0.3501,0.3513,0.3528,0.3539,0.3554,0.3562,0.3566,0.3589,0.3569,0.3614,0.3601,0.3649,0.3662,0.3659,0.367,0.3637,0.3736,0.3745,0.3754,0.3762,0.3772,0.3646,0.3646,0.3645,0.3645,0,0.3496,0.3506,0.3513,0.3529,0.3548,0.3568,0.3587,0.3615,0.3625,0.3638,0.3694,0.369,0.3719,0.3725,0.3702,0.377,0.3752,0.3747,0.3707,0.3772,0.3775,0.3785,0.3651,0.365,0.3649,0.3648,0,0,0.3436,0.3501,0.3496,0.3508,0.3563,0.3559,0.362,0.3668,0.3694,0.3727,0.3768,0.3801,0.3815,0.3819,0.3814,0.3838,0.39,0.3815,0.3816,0.3819,0.3985,0.3956,0.3963,0.3919,0.3921,0.3923,0.3958,0,0.3431,0.3451,0.3498,0.3516,0.3526,0.3591,0.3631,0.368,0.3729,0.3771,0.3817,0.3845,0.3846,0.3854,0.3896,0.3899,0.393,0.3889,0.3925,0.3925,0.3889,0.3976,0.3842,0.3862,0.3968,0.3969,0.397,0,0.3392,0.3416,0.3442,0.35,0.3511,0.3533,0.3609,0.3653,0.3755,0.3799,0.3885,0.3906,0.3968,0.394,0.4021,0.3999,0.4,0.3997,0.3999,0.3955,0.3916,0.3816,0.3875,0.3779,0.3985,0.3984,0.3983,0,0.33,0.336,0.3379,0.3397,0.3475,0.351,0.3558,0.366,0.3721,0.382,0.387,0.3961,0.3998,0.4042,0.407,0.4046,0.414,0.4105,0.4085,0.4081,0.3963,0.3946,0.3927,0.4162,0.4162,0.4162,0.4162,0,0.3256,0.3256,0.333,0.3331,0.3358,0.3431,0.3491,0.357,0.3696,0.3766,0.3868,0.3941,0.4028,0.4098,0.4102,0.4144,0.4185,0.4108,0.4105,0.3982,0.3967,0.3873,0.3815,0.4163,0.4163,0.4163,0.4163,0,0.3151,0.3207,0.322,0.3294,0.3318,0.3329,0.3463,0.3504,0.3637,0.3738,0.3772,0.395,0.4046,0.4119,0.4188,0.4184,0.4098,0.4206,0.4044,0.4022,0.3886,0.3836,0.3705,0.3597,0.4173,0.4173,0.4173,0,0.3107,0.3104,0.3168,0.3179,0.3218,0.3267,0.3308,0.3461,0.3525,0.3739,0.3769,0.3927,0.4026,0.4152,0.4176,0.4203,0.4083,0.4073,0.4002,0.3879,0.3822,0.3695,0.3603,0.3862,0.386,0.3857,0.3856,0,0.3026,0.3049,0.3066,0.309,0.312,0.3165,0.3239,0.3292,0.3465,0.3562,0.3704,0.3811,0.3983,0.3997,0.4077,0.4076,0.3884,0.4027,0.3948,0.3626,0.3437,0.3329,0.3818,0.3836,0.3838,0.3839,0.384,0.3841,0.2964,0.2955,0.2979,0.2989,0.3019,0.3039,0.304,0.3135,0.3231,0.3349,0.3544,0.3638,0.3783,0.3899,0.3877,0.3773,0.3759,0.3657,0.362,0.3514,0.3366,0.3807,0.3799,0.3801,0.3802,0.3803,0.3805,0,0.2872,0.287,0.2876,0.2875,0.2848,0.2913,0.296,0.2941,0.2978,0.3153,0.3262,0.3389,0.3435,0.3513,0.3516,0.3393,0.3243,0.3293,0.3072,0.3012,0.3451,0.3397,0.3243,0.3243,0.3243,0.3243,0.3244,0.3244,0.2827,0.2783,0.2777,0.2698,0.2692,0.2625,0.2622,0.2627,0.2707,0.2779,0.2855,0.299,0.3215,0.329,0.3191,0.31,0.2859,0.2744,0.273,0.3039,0.3069,0.3098,0.3035,0.2809,0.2808,0.2185,0.218,0.2176]},{"header":{"parameterUnit":"m.s-1","parameterCategory":2,"la1":30.2991,"la2":30.254,"lo1":-89.0895,"lo2":-89.0444,"dy":0.0017,"dx":0.0017,"nx":28,"ny":28,"refTime":"2024-03-20T03:00:00:Z","depth":"0","parameterNumber":3,"parameterNumberName":"V-component_of_CURRENTS"},"data":[0,0,0,0,0,0,0,0,0,0,0,0,0,0,0,0,0,0,0,0,0,0,0,0,0,0,0,0,0,0,0,0,0,0,0,0,0,0,0,0,0,0,0,0,0,0,0,0,0,0,0,0,0,0,0,0,0,0,0.0113,0.0113,0,0.005,0.0049,0.0048,0.0008,0.0007,0.0007,0.0007,-0.0072,-0.0074,-0.0076,0,0,0,0,0,0,0,0,0,0,0,0,0,0.0144,0.0144,0.0113,0.0113,0.0112,0.005,0.0049,0.0048,0.0008,0.0007,0.0007,0.0007,-0.0071,-0.0074,-0.0076,0,0,0,0,0,0,0,0,0,0,0,0,0,0.011,0.0144,0.0113,0.0085,0.0082,0.005,0.0049,0.0048,0.0008,0.0007,0.0007,0.0007,-0.0071,-0.0073,-0.0076,-0.009,0,0,-0.0085,-0.0087,0,0,0,0,0,0,0,0,0.0112,0.0108,0.009,0.0087,0.0083,0.0037,0.003,0.0001,0.0008,0.0035,0.0007,0.0007,-0.0036,-0.0042,-0.0054,-0.0094,-0.0097,-0.0086,-0.0087,-0.0089,-0.0089,0,0,0,0,0,0,0,0.0114,0.0111,0.0087,0.0089,0.0085,0.0056,0.0051,0.0024,0.0,0.0032,0.003,0.0024,-0.0038,-0.0052,-0.0057,-0.0098,-0.0086,-0.0088,-0.009,-0.0091,-0.0144,-0.0144,0,0,0,0,0,0,0.0127,0.0113,0.0089,0.0085,0.0098,0.0056,0.0051,0.0051,0.0001,-0.0007,0.0024,0.0022,-0.0046,-0.0053,-0.006,-0.006,-0.0089,-0.0091,-0.0093,-0.0145,-0.0144,-0.0144,0,0,0,0,0,0,0.0128,0.0126,0.0092,0.0098,0.0092,0.0056,0.0057,0.005,0.0042,-0.0005,-0.0013,0.0023,-0.0047,-0.0055,-0.0074,-0.0064,-0.0093,-0.0095,-0.0145,-0.0145,-0.0144,-0.0072,0,0,0,0,0,0,0.0129,0.0127,0.0131,0.0099,0.0092,0.0084,0.0057,0.0049,0.0039,0.0036,-0.0008,-0.0016,-0.0048,-0.007,-0.0077,-0.0068,-0.0098,-0.0146,-0.0145,-0.0144,-0.0074,-0.0069,-0.0064,0,0,0,0,0,0.0131,0.0144,0.0132,0.0129,0.01,0.0085,0.0079,0.0051,0.0039,0.0041,0.0012,-0.0015,-0.0071,-0.0072,-0.0081,-0.0072,-0.0146,-0.0145,-0.0144,-0.0077,-0.007,-0.0064,0,0,0,0,0,0,0.0161,0.014,0.0127,0.0133,0.0114,0.0078,0.0077,0.0059,0.0036,0.0034,-0.001,-0.002,-0.0033,-0.0063,-0.0062,-0.0086,-0.0113,-0.0114,-0.0059,-0.0053,-0.0047,-0.0022,-0.01,0,0,0,0,0,0.017,0.0172,0.0147,0.0151,0.0145,0.0113,0.0103,0.0086,0.0061,0.0051,0.0019,-0.0013,-0.0038,-0.0052,-0.008,-0.0092,-0.012,-0.0093,-0.0088,-0.0083,-0.0069,-0.01,-0.0096,-0.0141,-0.0141,-0.0141,0,0,0.0181,0.0171,0.0171,0.0157,0.0139,0.0144,0.0106,0.01,0.0104,0.0046,0.0042,0.0004,-0.0038,-0.005,-0.0059,-0.0072,-0.0087,-0.0082,-0.0077,-0.0066,-0.0099,-0.0094,-0.009,-0.0141,-0.0141,-0.0141,0,0,0.0211,0.0199,0.0212,0.0205,0.0188,0.0169,0.0172,0.0143,0.0131,0.0118,0.008,0.0055,0.0012,-0.0012,-0.003,-0.0012,-0.0057,-0.0026,0.0022,-0.0008,-0.0004,-0.0001,-0.0036,-0.0036,-0.0023,-0.0023,-0.0023,0,0.0225,0.0241,0.0214,0.0228,0.0229,0.0187,0.0206,0.019,0.0158,0.0157,0.0128,0.0074,0.0033,0.0026,0.0028,0.0002,-0.0026,0.0003,0.0,0.0003,0.0004,-0.0032,-0.0033,-0.0019,-0.002,-0.002,-0.002,0,0.0268,0.028,0.0289,0.0294,0.029,0.03,0.0277,0.0273,0.0248,0.0229,0.0212,0.0153,0.0124,0.0101,0.0067,0.0064,0.0037,0.0011,-0.0012,0.0014,-0.0027,-0.0029,-0.0014,-0.0015,-0.0017,-0.0017,0,0,0.0309,0.0318,0.0324,0.0341,0.0329,0.0336,0.0344,0.0344,0.0366,0.0313,0.0327,0.0267,0.0233,0.021,0.0161,0.0128,0.0106,0.008,0.0077,0.0054,0.0036,0.0031,0.0027,0.0079,0.0079,0.0079,0.0001,0,0.0353,0.0402,0.0387,0.0431,0.0456,0.0426,0.0443,0.0436,0.042,0.0422,0.0356,0.0345,0.0276,0.0263,0.0221,0.0142,0.0103,0.013,0.0008,0.0005,0.0004,0.0025,0.006,-0.0005,-0.0002,-0.0002,-0.0003,0,0.0406,0.0434,0.0485,0.0514,0.0522,0.0537,0.0566,0.0578,0.0566,0.0552,0.0523,0.0467,0.0417,0.0348,0.023,0.0251,0.0153,0.008,0.0075,0.0047,-0.0005,-0.003,-0.0011,-0.0183,-0.0008,-0.0008,-0.0007,0,0.0465,0.0504,0.055,0.056,0.0582,0.06,0.0615,0.0621,0.0656,0.0641,0.0653,0.0575,0.0548,0.042,0.0268,0.0247,0.0133,0.0082,-0.0017,-0.0019,-0.0023,-0.0025,-0.0174,-0.0005,-0.0005,-0.0004,-0.0004,0,0.0522,0.0562,0.0584,0.0614,0.0684,0.067,0.0744,0.0748,0.0769,0.0833,0.073,0.0753,0.0565,0.0472,0.0311,0.0154,0.0164,0.0003,-0.0032,0.0002,0.0003,-0.0175,-0.0269,-0.0007,-0.0007,-0.0006,-0.0006,0,0.0577,0.0589,0.0651,0.0691,0.0714,0.0767,0.0839,0.0893,0.0897,0.0974,0.0971,0.0893,0.0778,0.058,0.0383,0.023,-0.0025,-0.0002,0.0052,0.0024,-0.0232,-0.0322,-0.0497,-0.0556,-0.0126,-0.0126,-0.0126,0,0.0607,0.0645,0.0721,0.0771,0.079,0.087,0.0931,0.0963,0.1033,0.1075,0.1119,0.1025,0.0997,0.0698,0.0409,0.0135,-0.0035,-0.0027,-0.0064,-0.0231,-0.0358,-0.0428,-0.047,-0.0052,-0.0051,-0.0051,-0.0051,0,0.0667,0.0691,0.0746,0.0857,0.0927,0.1026,0.1117,0.1193,0.1248,0.1318,0.1388,0.1365,0.1081,0.0824,0.0437,0.0241,-0.0127,-0.0032,-0.0218,-0.0315,-0.0387,-0.0465,-0.0028,-0.0049,-0.0049,-0.005,-0.005,-0.005,0.0711,0.0765,0.084,0.0946,0.1039,0.1168,0.1267,0.1376,0.1517,0.164,0.1601,0.1619,0.1216,0.0698,0.0402,-0.012,-0.0138,-0.0283,-0.038,-0.0438,-0.0486,-0.0042,-0.0094,-0.0094,-0.0095,-0.0095,-0.0095,0,0.0766,0.0829,0.0926,0.1053,0.1166,0.121,0.1382,0.1495,0.1682,0.1807,0.188,0.171,0.1217,0.0702,-0.0014,-0.0396,-0.0525,-0.061,-0.0712,-0.074,-0.0356,-0.0343,-0.0433,-0.0433,-0.0433,-0.0433,-0.0432,-0.0432,0.0793,0.0893,0.0946,0.1138,0.1233,0.1402,0.151,0.1691,0.1831,0.2005,0.2043,0.2028,0.1611,0.0302,-0.0582,-0.0767,-0.1005,-0.1073,-0.1212,-0.0971,-0.0948,-0.0927,-0.0938,-0.1151,-0.1152,-0.1529,-0.1533,-0.1536]}],[{"header":{"parameterUnit":"m.s-1","parameterCategory":2,"la1":30.2991,"la2":30.254,"lo1":-89.0895,"lo2":-89.0444,"dy":0.0017,"dx":0.0017,"nx":28,"ny":28,"refTime":"2024-03-20T03:00:00:Z","depth":"2","parameterNumber":2,"parameterNumberName":"U-component_of_CURRENTS"},"data":[0,0,0,0,0,0,0,0,0,0,0,0,0,0,0,0,0,0,0,0,0,0,0,0,0,0,0,0,0,0,0,0,0,0,0,0,0,0,0,0,0,0,0,0,0,0,0,0,0,0,0,0,0,0,0,0,0,0,0.2817,0.2817,0,0.2829,0.2829,0.2829,0.2818,0.2818,0.2818,0.2818,0.2814,0.2814,0.2815,0,0,0,0,0,0,0,0,0,0,0,0,0,0.2788,0.2788,0.2817,0.2817,0.2818,0.2829,0.2829,0.2829,0.2818,0.2818,0.2818,0.2818,0.2814,0.2814,0.2815,0,0,0,0,0,0,0,0,0,0,0,0,0,0.2798,0.2788,0.2817,0.2816,0.2816,0.2829,0.2829,0.2829,0.2818,0.2818,0.2818,0.2818,0.2814,0.2814,0.2815,0.282,0,0,0.2815,0.2815,0,0,0,0,0,0,0,0,0.2797,0.2798,0.2816,0.2816,0.2816,0.2824,0.2817,0.2826,0.2818,0.2815,0.2818,0.2817,0.2818,0.2818,0.2817,0.282,0.282,0.2815,0.2815,0.2815,0.2815,0,0,0,0,0,0,0,0.2796,0.2798,0.2819,0.2816,0.2817,0.2816,0.2817,0.2819,0.2815,0.2815,0.2815,0.2821,0.2818,0.2817,0.2817,0.282,0.2815,0.2815,0.2815,0.2815,0.2882,0.2884,0,0,0,0,0,0,0.2801,0.2797,0.2819,0.282,0.2809,0.2817,0.2818,0.282,0.2816,0.2816,0.2821,0.282,0.2817,0.2817,0.2817,0.2869,0.2815,0.2815,0.2815,0.288,0.2883,0.2884,0,0,0,0,0,0,0.28,0.2802,0.2818,0.2811,0.2813,0.2818,0.282,0.282,0.2834,0.2821,0.282,0.2837,0.2817,0.2817,0.2836,0.2867,0.2815,0.2815,0.2878,0.2881,0.2883,0.2945,0,0,0,0,0,0,0.2799,0.2802,0.2811,0.2811,0.2814,0.2839,0.2821,0.2821,0.2838,0.2838,0.2834,0.2832,0.2817,0.2836,0.2836,0.2867,0.2815,0.2876,0.288,0.2883,0.2941,0.2949,0.2957,0,0,0,0,0,0.2798,0.2807,0.2811,0.2814,0.2824,0.284,0.2842,0.2842,0.284,0.2852,0.2852,0.2833,0.2857,0.2838,0.2837,0.2868,0.2875,0.2879,0.2882,0.2937,0.2948,0.2957,0,0,0,0,0,0,0.2796,0.2807,0.2811,0.2823,0.284,0.284,0.2853,0.2855,0.2864,0.2867,0.2851,0.285,0.2883,0.2869,0.2848,0.2899,0.2865,0.2869,0.2907,0.2917,0.2925,0.2926,0.2815,0,0,0,0,0,0.2802,0.2813,0.2826,0.2838,0.2849,0.2856,0.2866,0.2869,0.2875,0.288,0.2878,0.2882,0.2897,0.2901,0.2909,0.2931,0.2932,0.2953,0.2961,0.2968,0.2971,0.3017,0.3029,0.2897,0.2897,0.2897,0,0,0.2803,0.2814,0.2818,0.284,0.2851,0.2868,0.2861,0.2883,0.2898,0.2878,0.2901,0.2913,0.2912,0.2941,0.2954,0.2932,0.3006,0.2973,0.2979,0.2978,0.3022,0.3035,0.3046,0.29,0.2899,0.2899,0,0,0.2808,0.2825,0.2835,0.2853,0.288,0.2889,0.2902,0.2917,0.2928,0.2954,0.2951,0.2981,0.2993,0.3001,0.3006,0.3063,0.3052,0.3072,0.3106,0.3151,0.3162,0.3172,0.3186,0.3196,0.3069,0.307,0.307,0,0.281,0.2828,0.2843,0.2861,0.2881,0.2901,0.2922,0.2936,0.2956,0.2982,0.2971,0.3028,0.3021,0.3069,0.3084,0.3081,0.3097,0.3067,0.3161,0.3171,0.318,0.3192,0.3202,0.3073,0.3073,0.3072,0.3072,0,0.2819,0.2843,0.2855,0.2884,0.2907,0.2934,0.2958,0.2992,0.3013,0.3031,0.3095,0.3097,0.3135,0.3141,0.3123,0.3191,0.3179,0.3171,0.3135,0.3197,0.3205,0.3215,0.3078,0.3077,0.3076,0.3075,0,0,0.2784,0.2851,0.2851,0.2867,0.2927,0.293,0.2991,0.3044,0.3078,0.3118,0.3168,0.3204,0.3225,0.3232,0.3231,0.3256,0.3321,0.324,0.3241,0.3249,0.341,0.3367,0.3373,0.3339,0.3341,0.3343,0.3388,0,0.2788,0.2817,0.2863,0.289,0.2906,0.297,0.3011,0.3063,0.3117,0.3168,0.3214,0.3253,0.3254,0.3273,0.3311,0.332,0.3352,0.3309,0.3352,0.3353,0.3304,0.3385,0.3121,0.3137,0.3398,0.34,0.3401,0,0.2767,0.2793,0.2829,0.2886,0.29,0.2928,0.301,0.3056,0.3157,0.3206,0.3293,0.332,0.3386,0.336,0.3442,0.342,0.3425,0.3424,0.3426,0.337,0.3329,0.3119,0.3145,0.3417,0.3416,0.3415,0.3414,0,0.2693,0.2756,0.2783,0.2803,0.288,0.2919,0.2969,0.307,0.3132,0.3238,0.3295,0.3383,0.3428,0.3471,0.3499,0.3476,0.357,0.3535,0.3504,0.3499,0.3273,0.3246,0.3593,0.3593,0.3593,0.3593,0.3593,0,0.2663,0.2673,0.2747,0.2753,0.2791,0.2859,0.2929,0.3006,0.313,0.3202,0.3307,0.3377,0.3462,0.3529,0.3533,0.3567,0.3614,0.3527,0.3522,0.3287,0.3261,0.3499,0.3487,0.3595,0.3594,0.3594,0.3594,0,0.2578,0.2633,0.2657,0.2734,0.2761,0.2782,0.2915,0.2957,0.3093,0.3198,0.3237,0.3399,0.3489,0.3558,0.3622,0.3609,0.3629,0.3623,0.3333,0.3294,0.3509,0.3501,0.3583,0.3582,0.3582,0.3581,0.358,0,0.2543,0.2548,0.2621,0.2639,0.2682,0.2741,0.2784,0.2928,0.2993,0.3201,0.3234,0.3383,0.3462,0.3568,0.3567,0.3586,0.3637,0.3339,0.3248,0.3529,0.3516,0.3508,0.35,0.2961,0.2956,0.2951,0.2948,0,0.2478,0.2508,0.2531,0.2569,0.2606,0.2653,0.2732,0.2787,0.2952,0.3041,0.3165,0.3249,0.3388,0.3311,0.3373,0.3343,0.3316,0.3249,0.3629,0.302,0.2951,0.2935,0.2946,0.2907,0.2911,0.2914,0.2917,0.2918,0.243,0.2429,0.2462,0.2485,0.2522,0.2544,0.2547,0.2636,0.2718,0.2823,0.299,0.3024,0.3094,0.3062,0.2985,0.2932,0.3154,0.2995,0.3005,0.3021,0.2956,0.2891,0.2822,0.2826,0.2829,0.2831,0.2834,0,0.2351,0.2358,0.2374,0.2386,0.2365,0.2432,0.248,0.2453,0.2475,0.2609,0.2685,0.2533,0.2523,0.2586,0.2455,0.2475,0.2411,0.2363,0.2242,0.2287,0.2326,0.222,0.1894,0.189,0.1887,0.1884,0,0,0.2313,0.2282,0.228,0.2217,0.2224,0.2164,0.2162,0.2147,0.2196,0.219,0.2199,0.2411,0.2524,0.2166,0.2138,0.1984,0.2106,0.191,0.2675,0.2578,0.2611,0.2718,0.2612,0,0,0,0,0]},{"header":{"parameterUnit":"m.s-1","parameterCategory":2,"la1":30.2991,"la2":30.254,"lo1":-89.0895,"lo2":-89.0444,"dy":0.0017,"dx":0.0017,"nx":28,"ny":28,"refTime":"2024-03-20T03:00:00:Z","depth":"2","parameterNumber":3,"parameterNumberName":"V-component_of_CURRENTS"},"data":[0,0,0,0,0,0,0,0,0,0,0,0,0,0,0,0,0,0,0,0,0,0,0,0,0,0,0,0,0,0,0,0,0,0,0,0,0,0,0,0,0,0,0,0,0,0,0,0,0,0,0,0,0,0,0,0,0,0,0.0179,0.0178,0,0.0122,0.0121,0.0121,0.0085,0.0085,0.0085,0.0085,0.0018,0.0016,0.0014,0,0,0,0,0,0,0,0,0,0,0,0,0,0.0214,0.0214,0.0179,0.0178,0.0178,0.0122,0.0121,0.0121,0.0085,0.0085,0.0085,0.0085,0.0018,0.0016,0.0014,0,0,0,0,0,0,0,0,0,0,0,0,0,0.0182,0.0214,0.0179,0.0154,0.0151,0.0122,0.0121,0.012,0.0085,0.0085,0.0085,0.0085,0.0019,0.0016,0.0014,0.0003,0,0,0.0006,0.0005,0,0,0,0,0,0,0,0,0.0184,0.0181,0.0158,0.0156,0.0152,0.0111,0.0109,0.0081,0.0086,0.011,0.0085,0.0085,0.0048,0.0043,0.0033,-0.0,-0.0003,0.0006,0.0004,0.0003,0.0003,0,0,0,0,0,0,0,0.0186,0.0183,0.0156,0.0158,0.0154,0.0131,0.0126,0.0103,0.008,0.0108,0.0105,0.01,0.0047,0.0035,0.0031,-0.0004,0.0006,0.0004,0.0002,0.0001,-0.0045,-0.0045,0,0,0,0,0,0,0.0197,0.0185,0.0158,0.0154,0.0169,0.013,0.0125,0.0124,0.0081,0.0074,0.01,0.0098,0.0039,0.0034,0.0028,0.0028,0.0003,0.0001,-0.0,-0.0045,-0.0045,-0.0044,0,0,0,0,0,0,0.0198,0.0195,0.016,0.0168,0.0162,0.013,0.0129,0.0123,0.0115,0.0075,0.0068,0.0098,0.0039,0.0032,0.0016,0.0024,-0.0,-0.0002,-0.0045,-0.0045,-0.0045,0.0017,0,0,0,0,0,0,0.0199,0.0196,0.0199,0.0169,0.0162,0.0152,0.0129,0.0122,0.0112,0.0109,0.0071,0.0065,0.0038,0.002,0.0013,0.002,-0.0004,-0.0046,-0.0045,-0.0045,0.0015,0.0019,0.0024,0,0,0,0,0,0.0201,0.021,0.02,0.0196,0.0168,0.0153,0.0147,0.0123,0.0112,0.0114,0.0089,0.0066,0.0018,0.0018,0.0011,0.0017,-0.0046,-0.0045,-0.0045,0.0013,0.0018,0.0023,0,0,0,0,0,0,0.0228,0.0207,0.0195,0.0197,0.018,0.0147,0.0146,0.0129,0.0109,0.0108,0.007,0.0062,0.0051,0.0025,0.0026,0.0004,-0.0018,-0.0019,0.0028,0.0033,0.0038,0.0058,-0.0006,0,0,0,0,0,0.0236,0.0236,0.0211,0.0213,0.0208,0.0178,0.0168,0.0153,0.0131,0.0122,0.0095,0.0067,0.0046,0.0034,0.001,0.0,-0.0027,-0.0002,0.0003,0.0007,0.0017,-0.0017,-0.0014,-0.0042,-0.0042,-0.0042,0,0,0.0245,0.0234,0.0234,0.0219,0.0203,0.0206,0.0172,0.0165,0.0168,0.0118,0.0115,0.0082,0.0047,0.0036,0.0028,0.0017,-0.0001,0.0007,0.0011,0.002,-0.0016,-0.0013,-0.0011,-0.0042,-0.0042,-0.0042,0,0,0.027,0.0258,0.0269,0.0262,0.0245,0.0227,0.0229,0.0202,0.0191,0.018,0.0148,0.0123,0.0088,0.0066,0.005,0.0065,0.0025,0.0054,0.0093,0.006,0.0062,0.0064,0.0032,0.003,0.0057,0.0057,0.0057,0,0.0283,0.0296,0.027,0.0282,0.0283,0.0244,0.026,0.0245,0.0215,0.0213,0.0188,0.014,0.0104,0.0097,0.0098,0.0076,0.0051,0.0078,0.0067,0.0068,0.0068,0.0035,0.0033,0.006,0.0059,0.0059,0.0059,0,0.0321,0.033,0.0338,0.0342,0.0337,0.0345,0.0323,0.0318,0.0296,0.0277,0.026,0.0206,0.018,0.0159,0.0131,0.0122,0.0101,0.0077,0.0057,0.0075,0.0039,0.0035,0.0064,0.0063,0.0062,0.0061,0,0,0.0355,0.0363,0.0368,0.0385,0.0373,0.0378,0.0384,0.0382,0.0399,0.035,0.0359,0.0305,0.0272,0.0252,0.0208,0.0172,0.0145,0.0131,0.0128,0.0106,0.0073,0.0056,0.0049,0.012,0.012,0.0119,0.0046,0,0.0395,0.0438,0.0425,0.0465,0.0487,0.046,0.0474,0.0466,0.0449,0.0445,0.0382,0.0371,0.031,0.0298,0.0253,0.0177,0.0138,0.0168,0.0053,0.005,0.0037,0.0045,0.0078,0.0015,0.0042,0.0041,0.004,0,0.0442,0.0467,0.0514,0.0541,0.0548,0.0561,0.0585,0.0595,0.0577,0.0563,0.053,0.0478,0.0425,0.0364,0.0246,0.0269,0.018,0.0111,0.0106,0.0069,0.0025,-0.0,0.0007,0.0033,0.0034,0.0035,0.0035,0,0.0496,0.0531,0.0573,0.0583,0.0602,0.0619,0.0632,0.0633,0.0663,0.0642,0.065,0.057,0.0538,0.0418,0.0272,0.026,0.0135,0.0098,-0.0002,-0.0004,-0.0009,-0.0011,0.0013,0.0013,0.0013,0.0013,0.0014,0,0.0548,0.0585,0.0604,0.0632,0.0696,0.0683,0.0749,0.0751,0.0764,0.0815,0.072,0.073,0.055,0.0453,0.0306,0.0148,0.016,0.0011,-0.0022,0.0013,0.0013,0.0003,0.0003,0.0011,0.0011,0.0012,0.0012,0,0.06,0.0609,0.0667,0.0702,0.0724,0.0772,0.0838,0.0884,0.0884,0.0944,0.094,0.0853,0.073,0.0542,0.0348,0.0208,0.0047,-0.0015,0.0038,0.0013,-0.0082,-0.0078,-0.0134,-0.0135,-0.0136,-0.0137,-0.0137,0,0.0627,0.0661,0.073,0.0775,0.0793,0.0867,0.0922,0.0949,0.1008,0.103,0.1063,0.0958,0.0908,0.0609,0.0341,0.0084,0.0045,-0.006,-0.0084,-0.0069,-0.0096,-0.009,-0.0085,-0.007,-0.0071,-0.0071,-0.0071,0,0.0681,0.0702,0.0752,0.0852,0.0917,0.1008,0.1089,0.1155,0.1197,0.1244,0.128,0.1237,0.0953,0.0691,0.0328,0.016,-0.0019,-0.007,-0.0066,-0.0035,-0.0015,-0.0039,-0.0035,-0.0071,-0.0071,-0.0071,-0.0071,-0.0071,0.0721,0.0768,0.0835,0.0932,0.1018,0.1133,0.122,0.1307,0.1418,0.1491,0.1443,0.1385,0.1076,0.0616,0.0297,-0.0034,-0.0017,-0.0132,-0.0129,-0.0128,-0.0103,-0.0086,-0.0151,-0.0152,-0.0152,-0.0152,-0.0153,0,0.0767,0.0823,0.091,0.1025,0.1127,0.1171,0.132,0.1408,0.1547,0.1602,0.1628,0.1343,0.1033,0.0672,0.0178,-0.0113,-0.0128,-0.0202,-0.0162,-0.0158,-0.0155,-0.0132,-0.0188,-0.0189,-0.019,-0.0191,0,0,0.0789,0.0877,0.0924,0.1096,0.1184,0.1334,0.1428,0.1557,0.1638,0.1702,0.1669,0.1584,0.1145,0.078,0.0377,0.0087,0.0038,0.0041,0.0106,0.0207,0.0213,-0.0074,-0.0029,0,0,0,0,0]}],[{"header":{"parameterUnit":"m.s-1","parameterCategory":2,"la1":30.2991,"la2":30.254,"lo1":-89.0895,"lo2":-89.0444,"dy":0.0017,"dx":0.0017,"nx":28,"ny":28,"refTime":"2024-03-20T03:00:00:Z","depth":"4","parameterNumber":2,"parameterNumberName":"U-component_of_CURRENTS"},"data":[0,0,0,0,0,0,0,0,0,0,0,0,0,0,0,0,0,0,0,0,0,0,0,0,0,0,0,0,0,0,0,0,0,0,0,0,0,0,0,0,0,0,0,0,0,0,0,0,0,0,0,0,0,0,0,0,0,0,0.1773,0.1774,0,0.1837,0.1837,0.1838,0.1892,0.1893,0.1894,0.1894,0.1965,0.1966,0.1967,0,0,0,0,0,0,0,0,0,0,0,0,0,0.1677,0.1679,0.1773,0.1774,0.1775,0.1837,0.1837,0.1838,0.1892,0.1893,0.1894,0.1895,0.1965,0.1966,0.1967,0,0,0,0,0,0,0,0,0,0,0,0,0,0.1725,0.1679,0.1773,0.1811,0.1815,0.1837,0.1837,0.1838,0.1892,0.1893,0.1894,0.1895,0.1964,0.1966,0.1967,0.1953,0,0,0.1973,0.1973,0,0,0,0,0,0,0,0,0.1723,0.1729,0.1805,0.1809,0.1813,0.186,0.183,0.1878,0.1891,0.186,0.1894,0.1896,0.1931,0.1936,0.1941,0.1956,0.1959,0.1973,0.1974,0.1974,0.1975,0,0,0,0,0,0,0,0.1719,0.1726,0.1796,0.1806,0.1811,0.1818,0.1826,0.1839,0.1886,0.1863,0.1868,0.1878,0.1933,0.1939,0.1943,0.196,0.1973,0.1974,0.1975,0.1976,0.2083,0.2085,0,0,0,0,0,0,0.1716,0.1723,0.1794,0.1798,0.1773,0.1819,0.1828,0.1842,0.1886,0.1895,0.1877,0.1881,0.1936,0.1941,0.1946,0.2035,0.1974,0.1976,0.1977,0.2081,0.2084,0.2086,0,0,0,0,0,0,0.1714,0.1722,0.1791,0.1764,0.1773,0.182,0.1834,0.1842,0.1891,0.1897,0.1906,0.1922,0.1937,0.1944,0.1995,0.2034,0.1977,0.1978,0.2079,0.2082,0.2085,0.2147,0,0,0,0,0,0,0.1711,0.1721,0.1748,0.1764,0.1775,0.183,0.1834,0.1843,0.1894,0.19,0.1938,0.1943,0.1939,0.1993,0.1997,0.2036,0.198,0.2077,0.2081,0.2084,0.2142,0.2151,0.2159,0,0,0,0,0,0.1707,0.1731,0.1749,0.1759,0.1805,0.1831,0.1838,0.1873,0.1895,0.192,0.1951,0.1944,0.2018,0.1995,0.2,0.204,0.2075,0.208,0.2084,0.2139,0.215,0.2159,0,0,0,0,0,0,0.1707,0.174,0.176,0.1795,0.1826,0.1842,0.1875,0.1896,0.1939,0.1959,0.1964,0.1972,0.2034,0.2028,0.2004,0.2082,0.2047,0.2052,0.2087,0.2098,0.2106,0.2109,0.1981,0,0,0,0,0,0.1718,0.1749,0.1776,0.1811,0.183,0.1861,0.1885,0.1909,0.1939,0.1962,0.1988,0.2018,0.2046,0.2067,0.2088,0.2127,0.2129,0.2157,0.2166,0.2173,0.218,0.2225,0.2238,0.2099,0.2099,0.2099,0,0,0.1728,0.1752,0.1772,0.1814,0.1843,0.1871,0.188,0.1928,0.1959,0.1961,0.2027,0.2053,0.2065,0.2113,0.214,0.2118,0.2213,0.2178,0.2184,0.2187,0.223,0.2244,0.2256,0.2102,0.2102,0.2101,0,0,0.1746,0.1788,0.1814,0.1841,0.1892,0.1909,0.1932,0.1974,0.2009,0.2063,0.2078,0.2129,0.217,0.2186,0.2197,0.2263,0.2259,0.2279,0.2321,0.2365,0.2377,0.2387,0.2402,0.2413,0.2279,0.2279,0.228,0,0.1761,0.1797,0.1827,0.1856,0.1889,0.193,0.1964,0.1995,0.2052,0.2089,0.2098,0.2191,0.2201,0.2258,0.2282,0.2282,0.2301,0.228,0.2376,0.2386,0.2395,0.2408,0.242,0.2283,0.2283,0.2282,0.2282,0,0.1781,0.1828,0.1849,0.19,0.1934,0.1977,0.2017,0.2072,0.2123,0.2154,0.2245,0.2267,0.2325,0.2336,0.2328,0.2406,0.2395,0.2383,0.2347,0.2413,0.2422,0.2433,0.2288,0.2287,0.2286,0.2285,0,0,0.1764,0.185,0.186,0.189,0.1968,0.1985,0.2062,0.213,0.2183,0.2252,0.2323,0.238,0.2417,0.2432,0.2442,0.2472,0.2545,0.2462,0.2463,0.2472,0.2637,0.2476,0.2472,0.2561,0.2563,0.2565,0.2614,0,0.1779,0.1832,0.1881,0.1939,0.1969,0.2043,0.2099,0.2168,0.2239,0.2314,0.2372,0.2439,0.2444,0.2484,0.2525,0.2544,0.2579,0.2532,0.2577,0.2577,0.2423,0.248,0.2573,0.2622,0.2625,0.2626,0.2628,0,0.1771,0.1812,0.1877,0.1957,0.1979,0.2028,0.2135,0.2194,0.231,0.2371,0.2471,0.2513,0.2595,0.2576,0.2667,0.2645,0.2655,0.2656,0.2658,0.2493,0.2436,0.2546,0.2647,0.2645,0.2644,0.2642,0.2641,0,0.1709,0.1799,0.1854,0.1882,0.1983,0.2043,0.2109,0.2223,0.2291,0.2422,0.249,0.2589,0.2653,0.2698,0.273,0.2713,0.2803,0.2772,0.2636,0.2624,0.2726,0.2714,0.2832,0.2832,0.2832,0.2831,0.2831,0,0.1681,0.1721,0.1834,0.1859,0.1931,0.2011,0.2111,0.2197,0.2328,0.2403,0.2523,0.2588,0.2693,0.2756,0.2764,0.2736,0.2843,0.265,0.2631,0.2749,0.274,0.2733,0.2721,0.2833,0.2833,0.2833,0.2832,0,0.1602,0.1682,0.1744,0.1863,0.1908,0.1959,0.2116,0.217,0.2317,0.2425,0.2474,0.2622,0.2695,0.2769,0.283,0.2761,0.2751,0.2714,0.2839,0.2825,0.253,0.2521,0.2551,0.2546,0.2542,0.2538,0.2535,0,0.1566,0.1594,0.1732,0.1776,0.1844,0.1943,0.2004,0.2157,0.2219,0.2419,0.2445,0.2582,0.2658,0.2617,0.2707,0.2711,0.2683,0.2654,0.2582,0.2526,0.2505,0.2503,0.25,0.2528,0.2527,0.2526,0.2525,0,0.1498,0.1568,0.1622,0.1714,0.1789,0.1857,0.1961,0.1995,0.2158,0.2309,0.2353,0.2391,0.2469,0.2506,0.2537,0.2535,0.2654,0.2607,0.2615,0.2548,0.2498,0.2481,0.2483,0.2509,0.2512,0.2513,0.2514,0,0.1458,0.1478,0.1563,0.1626,0.1712,0.1738,0.1812,0.1869,0.1948,0.2154,0.2161,0.2305,0.2436,0.2417,0.2446,0.2434,0.2388,0.2293,0.2316,0.2334,0.2242,0.2146,0.2038,0,0,0,0,0,0.1401,0.1409,0.1463,0.1517,0.1592,0.1641,0.1758,0.1831,0.1987,0.1957,0.2054,0.2109,0.2151,0.2228,0.2171,0.2361,0.2407,0.2286,0.2311,0.2425,0.2443,0.2355,0,0,0,0,0,0,0.1362,0.141,0.1422,0.1408,0.1421,0.1483,0.1551,0.1658,0.1652,0.1819,0.185,0.1975,0.2048,0.2156,0.2127,0.2151,0.2122,0.2379,0.2373,0.2416,0.2431,0.2445,0.2361,0,0,0,0,0]},{"header":{"parameterUnit":"m.s-1","parameterCategory":2,"la1":30.2991,"la2":30.254,"lo1":-89.0895,"lo2":-89.0444,"dy":0.0017,"dx":0.0017,"nx":28,"ny":28,"refTime":"2024-03-20T03:00:00:Z","depth":"4","parameterNumber":3,"parameterNumberName":"V-component_of_CURRENTS"},"data":[0,0,0,0,0,0,0,0,0,0,0,0,0,0,0,0,0,0,0,0,0,0,0,0,0,0,0,0,0,0,0,0,0,0,0,0,0,0,0,0,0,0,0,0,0,0,0,0,0,0,0,0,0,0,0,0,0,0,0.0169,0.0168,0,0.0134,0.0134,0.0133,0.0114,0.0114,0.0114,0.0114,0.0071,0.007,0.0069,0,0,0,0,0,0,0,0,0,0,0,0,0,0.019,0.019,0.0169,0.0168,0.0168,0.0134,0.0134,0.0133,0.0114,0.0114,0.0114,0.0114,0.0072,0.007,0.0069,0,0,0,0,0,0,0,0,0,0,0,0,0,0.017,0.019,0.0169,0.0154,0.0153,0.0134,0.0134,0.0133,0.0114,0.0114,0.0114,0.0114,0.0072,0.0071,0.0069,0.006,0,0,0.0064,0.0063,0,0,0,0,0,0,0,0,0.0171,0.0169,0.0157,0.0155,0.0154,0.0129,0.0125,0.0108,0.0114,0.0129,0.0114,0.0114,0.009,0.0087,0.008,0.0058,0.0056,0.0064,0.0063,0.0062,0.0061,0,0,0,0,0,0,0,0.0173,0.0171,0.0155,0.0157,0.0154,0.014,0.0138,0.0122,0.011,0.0127,0.0126,0.0122,0.0089,0.0082,0.0079,0.0055,0.0064,0.0062,0.0061,0.0061,0.0029,0.003,0,0,0,0,0,0,0.0179,0.0172,0.0156,0.0154,0.0163,0.014,0.0137,0.0136,0.011,0.0106,0.0123,0.0122,0.0085,0.0081,0.0077,0.0079,0.0062,0.006,0.0059,0.0029,0.0029,0.003,0,0,0,0,0,0,0.018,0.0178,0.0157,0.0162,0.0159,0.014,0.0139,0.0136,0.0133,0.0106,0.0102,0.0124,0.0084,0.008,0.0071,0.0077,0.006,0.0058,0.0029,0.0029,0.003,0.0074,0,0,0,0,0,0,0.0181,0.0179,0.0183,0.0163,0.0158,0.0153,0.0139,0.0135,0.0131,0.013,0.0106,0.0102,0.0084,0.0074,0.0069,0.0074,0.0057,0.0029,0.0029,0.0029,0.0072,0.0075,0.0078,0,0,0,0,0,0.0182,0.0189,0.0183,0.0181,0.0164,0.0154,0.015,0.0136,0.0131,0.0133,0.0118,0.0103,0.0072,0.0073,0.0068,0.0072,0.0029,0.0029,0.0029,0.007,0.0075,0.0078,0,0,0,0,0,0,0.02,0.0187,0.0181,0.0183,0.0172,0.0151,0.0152,0.0141,0.0131,0.0131,0.0106,0.0101,0.0095,0.0077,0.0078,0.0063,0.0047,0.0047,0.008,0.0084,0.0087,0.0101,0.0055,0,0,0,0,0,0.0206,0.0209,0.0192,0.0195,0.0192,0.0173,0.0168,0.0158,0.0145,0.014,0.0123,0.0105,0.0091,0.0084,0.0068,0.0061,0.0037,0.006,0.0063,0.0066,0.0073,0.004,0.0041,0.0031,0.0031,0.0031,0,0,0.0214,0.0207,0.0208,0.0199,0.019,0.0193,0.017,0.0167,0.0171,0.0137,0.0139,0.0117,0.0092,0.0086,0.0081,0.0072,0.0055,0.0066,0.0069,0.0075,0.004,0.0041,0.0042,0.0031,0.0031,0.0031,0,0,0.0232,0.0226,0.0235,0.0231,0.0222,0.021,0.0212,0.0194,0.019,0.0185,0.0163,0.0144,0.0124,0.0106,0.0095,0.0105,0.0074,0.01,0.0126,0.0094,0.0095,0.0095,0.0065,0.0062,0.01,0.0101,0.0101,0,0.0243,0.0254,0.0236,0.0247,0.025,0.0222,0.0236,0.0227,0.0209,0.0209,0.0193,0.016,0.0134,0.0127,0.0128,0.0113,0.0091,0.0115,0.0099,0.0098,0.0098,0.0067,0.0063,0.0103,0.0102,0.0102,0.0102,0,0.027,0.028,0.0287,0.0293,0.0292,0.0299,0.0285,0.0284,0.027,0.0257,0.0246,0.0206,0.0189,0.0172,0.0152,0.014,0.0124,0.0108,0.0091,0.0102,0.0068,0.0064,0.0106,0.0105,0.0104,0.0104,0,0,0.0293,0.0304,0.0309,0.0325,0.0319,0.0325,0.0332,0.0332,0.0347,0.0313,0.0319,0.0279,0.0255,0.024,0.0207,0.0172,0.0142,0.0143,0.014,0.0117,0.0073,0.0062,0.0055,0.0123,0.0122,0.0122,0.0051,0,0.0322,0.0357,0.0351,0.0386,0.0405,0.0389,0.0402,0.0398,0.0387,0.0384,0.0334,0.0328,0.0282,0.0275,0.0233,0.0169,0.0132,0.0163,0.0063,0.0061,0.0052,0.0051,0.012,0.0048,0.0047,0.0046,0.0045,0,0.0354,0.0376,0.0417,0.0445,0.0452,0.0468,0.0491,0.0501,0.0486,0.0476,0.045,0.041,0.0362,0.0317,0.0213,0.0236,0.0162,0.0103,0.0098,0.0071,0.0041,0.0034,0.0037,0.0037,0.0038,0.0038,0.0039,0,0.039,0.0424,0.0461,0.0471,0.0494,0.0514,0.0529,0.0532,0.0557,0.0539,0.0545,0.0477,0.045,0.0348,0.0225,0.022,0.0101,0.0078,-0.0004,-0.0006,0.0007,0.0007,0.0,0.0,0.0,0.0,0.0001,0,0.0423,0.0458,0.0486,0.0509,0.0568,0.0564,0.0622,0.0626,0.0637,0.0671,0.0602,0.06,0.0456,0.0368,0.0247,0.0112,0.0118,0.0003,-0.0024,0.0026,0.003,0.0003,0.0004,-0.0002,-0.0002,-0.0001,-0.0001,0,0.0454,0.047,0.0522,0.0563,0.0587,0.0631,0.0696,0.0732,0.0736,0.0774,0.0771,0.0694,0.058,0.0427,0.0257,0.0153,0.0015,-0.0037,0.0034,0.0013,-0.0077,-0.0073,-0.0131,-0.0132,-0.0133,-0.0134,-0.0135,0,0.0468,0.0498,0.0571,0.0612,0.0636,0.0705,0.0754,0.0784,0.0825,0.0833,0.0848,0.0753,0.068,0.0442,0.0269,0.0037,-0.0002,-0.0075,-0.0086,-0.007,-0.009,-0.0084,-0.0079,-0.0136,-0.0136,-0.0136,-0.0137,0,0.0497,0.0525,0.057,0.0662,0.0724,0.0803,0.0873,0.091,0.0941,0.0946,0.0917,0.0787,0.0653,0.0451,0.027,0.0101,-0.0029,-0.0085,-0.0085,-0.0095,-0.0076,-0.0094,-0.0088,-0.0139,-0.0139,-0.0139,-0.0139,0,0.052,0.0557,0.062,0.0701,0.0789,0.087,0.0907,0.095,0.099,0.0989,0.0977,0.0825,0.0739,0.0484,0.0318,0.0149,0.0098,0.0036,0.0029,0.003,0.009,0.0138,0.0121,0,0,0,0,0,0.0535,0.0579,0.0653,0.0743,0.0832,0.0888,0.0973,0.0998,0.1029,0.1019,0.1002,0.0875,0.0626,0.0518,0.0348,0.0285,0.0059,0.0077,-0.0018,-0.0155,-0.0152,-0.0112,0,0,0,0,0,0,0.0542,0.0612,0.0651,0.0766,0.0833,0.0935,0.0993,0.1013,0.101,0.101,0.0885,0.0824,0.0584,0.0726,0.0343,0.0291,0.0204,-0.0036,-0.0041,-0.0157,-0.0154,-0.0152,-0.0109,0,0,0,0,0]}]]